Location: Cardiff
(53.7833°N, 113.6000°W)
Time: 16:53:21
(UTC+00:00)

RS-15 - Pass Details

Date: 09 December 2023
Orbit: 1893 x 2151 km, 64.8° (Epoch: 27 February)

Event Time Altitude Azimuth Distance (km) Brightness Sun altitude
Rises 04:03:50 0° 216° (SW) 5,650 10.6 -41.1°
Reaches altitude 10° 04:07:17 10° 216° (SW) 4,635 10.1 -41.6°
Enters shadow 04:16:22 58° 210° (SSW) 2,361 8.2 -42.9°
